#timestamp,LO_Frequency,Hit,StdDev 
1610197215.5,286047000.3,N
1610197235.4,286047000.1,N
1610197255.2,286047000.2,N
1610197275.0,286047000.0,N
1610197275.9,286047000.0,N
1610197295.8,286047001.3,N
1610197315.6,286047000.4,N
1610197335.5,286046998.3,N
1610197355.3,286046999.1,N
1610197375.1,286046999.3,N
1610197395.9,286046999.3,N
1610197415.7,286046998.3,N
1610197435.5,286046998.5,N
1610197455.4,286046999.0,N
1610197475.2,286046996.8,N
1610197495.1,286046997.3,N
1610197496.0,286046997.3,N
1610197515.8,286046997.2,N
1610197535.6,286046996.8,N
1610197555.5,286046999.2,N
1610197575.3,286046996.6,N
1610197595.1,286046998.7,N
1610197615.9,286047000.9,N
1610197635.7,286046998.1,N
1610197655.6,286046998.5,N
1610197675.4,286047000.3,N
1610197695.2,286047000.2,N
1610197715.1,286046999.7,N
1610197716.0,286046999.7,N
1610197735.8,286046999.5,N
1610197755.7,286046996.9,N
1610197775.5,286046997.6,N
1610197795.3,286046996.6,N
1610197815.2,286046997.2,N
1610197835.0,286046997.8,N
1610197835.9,286046997.8,N
1610197855.8,286046995.8,Y
1610197875.6,286046997.1,P
1610197895.4,286046996.8,P
1610197915.3,286046999.6,N
1610197935.1,286046996.9,N
1610197955.8,286046999.1,N
1610197975.7,286046999.3,N
1610197995.5,286046996.9,N
1610198015.4,286046996.7,N
1610198035.2,286046997.1,N
1610198055.0,286046997.5,N
1610198055.9,286046997.5,N
1610198075.8,286046997.6,N
1610198095.6,286046997.7,N
1610198115.5,286046996.9,Y
1610198135.3,286047000.9,P
1610198155.1,286047000.8,N
1610198175.9,286046998.2,N
1610198195.7,286046998.9,N
1610198215.5,286046998.2,N
1610198235.4,286046999.4,N
1610198255.2,286046999.1,N
1610198275.1,286046998.9,N
1610198276.0,286046998.9,N
1610198295.8,286046998.4,N
1610198315.6,286047003.4,Y
1610198335.5,286047008.2,P
1610198355.3,286047007.9,N
1610198375.2,286047008.8,N
1610198395.9,286047006.5,N
1610198415.7,286047005.4,N
1610198435.6,286047005.7,N
1610198455.4,286047004.3,N
1610198475.2,286046999.9,N
1610198495.1,286047000.6,N
1610198496.0,286047000.6,N
1610198515.8,286046997.4,N
1610198535.7,286047011.9,Y
1610198555.5,286046988.6,P
1610198575.3,286046988.5,N
1610198595.2,286046990.8,N
1610198615.0,286046992.4,N
1610198615.9,286046992.4,N
1610198635.8,286046990.7,N
1610198655.6,286046988.1,N
1610198675.4,286046984.3,Y
1610198695.3,286046992.7,P
1610198715.1,286046995.7,P
1610198735.8,286046996.4,N
1610198755.7,286046993.3,Y
1610198775.5,286047001.8,P
1610198795.4,286047001.7,N
1610198815.2,286047001.0,N
1610198835.0,286046999.3,N
1610198835.9,286046999.3,N
1610198855.8,286046996.7,N
1610198875.6,286046997.2,N
1610198895.5,286046995.5,N
1610198915.3,286046995.9,N
1610198935.1,286046994.2,N
1610198955.9,286046993.5,N
1610198975.7,286046993.5,N
1610198995.5,286046993.6,N
1610199015.4,286046996.2,N
1610199035.2,286046993.6,N
1610199055.1,286046994.1,N
1610199056.0,286046994.1,N
1610199075.8,286046994.0,N
1610199095.6,286046993.6,N
1610199115.5,286046996.4,N
1610199135.3,286046995.8,N
1610199155.1,286046995.6,N
1610199175.9,286046993.4,N
1610199195.7,286046996.0,N
1610199215.6,286046995.3,N
1610199235.4,286046997.5,N
1610199255.2,286046996.6,N
1610199275.1,286046997.2,N
1610199276.0,286046997.2,N
1610199295.8,286046997.9,N
1610199315.7,286046995.7,N
1610199335.5,286046995.6,N
1610199355.3,286046995.3,N
1610199375.2,286046995.3,N
1610199395.0,286046998.0,N
1610199395.9,286046998.0,N
1610199415.7,286046997.5,N
1610199435.6,286046997.9,N
1610199455.4,286046995.2,Y
1610199475.3,286047001.2,P
1610199495.1,286046998.8,N
1610199515.8,286047000.8,N
1610199535.7,286046999.1,N
1610199555.5,286046998.8,N
1610199575.4,286047001.2,N
1610199595.2,286047000.6,N
1610199615.0,286047000.1,N
1610199615.9,286047000.1,N
1610199635.8,286046999.9,N
1610199655.6,286047000.9,N
1610199675.5,286047001.0,N
1610199695.3,286047000.3,N
1610199715.1,286046999.9,N
1610199735.9,286047002.7,N
1610199755.7,286047002.8,N
1610199775.5,286047002.0,N
1610199795.4,286047002.1,N
1610199815.2,286047002.5,N
1610199835.1,286047002.5,N
1610199836.0,286047002.5,N
1610199855.8,286047002.0,N
1610199875.6,286047002.1,N
1610199895.5,286047002.6,N
1610199915.3,286047001.6,N
1610199935.1,286047002.5,N
1610199955.9,286047002.2,N
1610199975.7,286047001.9,N
1610199995.6,286047002.5,N
1610200015.4,286047002.5,N
1610200035.2,286046999.9,N
1610200055.1,286046999.7,N
1610200056.0,286046999.7,N
1610200075.8,286047000.3,N
1610200095.7,286047000.9,N
1610200115.5,286046999.9,N
1610200135.3,286047000.0,N
1610200155.2,286047002.6,N
1610200175.0,286047002.5,N
1610200175.9,286047002.5,N
1610200195.7,286047002.5,N
1610200215.6,286047001.7,N
1610200235.4,286047002.6,N
1610200255.3,286047002.2,N
1610200275.1,286047002.7,N
1610200295.8,286047002.8,N
1610200315.7,286047002.3,N
1610200335.5,286047002.3,N
1610200355.4,286046999.8,N
1610200375.2,286047002.3,N
1610200395.0,286047001.8,N
1610200395.9,286047001.8,N
1610200415.8,286047001.6,N
1610200435.6,286047001.4,N
1610200455.5,286047003.7,Y
1610200475.3,286046999.8,P
1610200495.1,286047002.5,N
1610200515.9,286047002.6,N
1610200535.7,286047000.2,N
1610200555.5,286047002.5,N
1610200575.4,286046999.8,N
1610200595.2,286046999.9,N
1610200615.1,286047002.8,N
1610200616.0,286047002.8,N
1610200635.8,286047000.8,N
1610200655.6,286046999.8,N
1610200675.5,286047004.1,Y
1610200695.3,286047001.9,P
1610200715.2,286047002.5,P
1610200735.9,286047000.2,N
1610200755.7,286047000.0,N
1610200775.6,286047000.2,N
1610200795.4,286047002.7,N
